TimeCDT,TemperatureF,Dew PointF,Humidity,Sea Level PressureIn,VisibilityMPH,Wind Direction,Wind SpeedMPH,Gust SpeedMPH,PrecipitationIn,Events,Conditions,WindDirDegrees,DateUTC
12:54 AM,63.0,48.0,58,29.57,10.0,SSW,16.1,23.0,N/A,,Mostly Cloudy,200,2012-10-17 05:54:00
1:54 AM,62.1,46.9,58,29.57,10.0,SSW,16.1,-,N/A,,Clear,200,2012-10-17 06:54:00
2:54 AM,60.1,46.9,62,29.55,10.0,South,12.7,-,N/A,,Clear,190,2012-10-17 07:54:00
3:54 AM,59.0,48.0,67,29.55,10.0,South,11.5,-,N/A,,Clear,190,2012-10-17 08:54:00
4:54 AM,57.0,48.0,72,29.54,10.0,South,9.2,-,N/A,,Clear,180,2012-10-17 09:54:00
5:54 AM,55.9,48.9,77,29.54,10.0,South,10.4,-,N/A,,Clear,180,2012-10-17 10:54:00
6:54 AM,55.0,48.0,77,29.53,10.0,South,9.2,-,N/A,,Clear,180,2012-10-17 11:54:00
7:54 AM,55.0,48.9,80,29.53,10.0,South,10.4,-,N/A,,Clear,190,2012-10-17 12:54:00
8:54 AM,57.9,50.0,75,29.52,10.0,South,13.8,-,N/A,,Overcast,180,2012-10-17 13:54:00
9:54 AM,61.0,51.1,70,29.50,10.0,South,15.0,23.0,N/A,,Mostly Cloudy,190,2012-10-17 14:54:00
10:54 AM,62.1,53.1,72,29.49,10.0,SSW,15.0,26.5,N/A,,Clear,200,2012-10-17 15:54:00
11:54 AM,63.0,54.0,72,29.48,10.0,South,12.7,21.9,N/A,,Scattered Clouds,190,2012-10-17 16:54:00
12:01 PM,62.6,53.6,72,29.49,10.0,SSW,16.1,21.9,N/A,,Mostly Cloudy,200,2012-10-17 17:01:00
12:34 PM,62.6,55.4,77,29.47,10.0,South,15.0,25.3,N/A,,Mostly Cloudy,190,2012-10-17 17:34:00
12:54 PM,63.0,55.0,75,29.46,10.0,South,13.8,24.2,N/A,,Overcast,190,2012-10-17 17:54:00
1:11 PM,62.6,55.4,77,29.46,10.0,South,13.8,-,N/A,,Overcast,190,2012-10-17 18:11:00
1:50 PM,60.8,55.4,82,29.44,2.5,South,10.4,-,0.01,Thunderstorm,Unknown,180,2012-10-17 18:50:00
1:54 PM,60.1,55.9,86,29.44,1.5,South,11.5,-,0.06,Thunderstorm,Overcast,190,2012-10-17 18:54:00
2:05 PM,59.0,57.2,94,29.44,2.0,South,10.4,-,0.04,Thunderstorm,Overcast,180,2012-10-17 19:05:00
2:10 PM,59.0,57.2,94,29.43,3.0,South,10.4,-,0.05,Rain,Light Rain,180,2012-10-17 19:10:00
2:16 PM,59.0,57.2,94,29.43,3.0,SSE,5.8,-,0.07,Rain,Rain,160,2012-10-17 19:16:00
2:19 PM,59.0,57.2,94,29.43,3.0,SSE,9.2,-,0.07,Thunderstorm,Thunderstorm,160,2012-10-17 19:19:00
2:23 PM,59.0,57.2,94,29.43,3.0,SSE,10.4,-,0.08,Thunderstorm,Thunderstorm,160,2012-10-17 19:23:00
2:34 PM,59.0,57.2,94,29.44,3.0,South,13.8,-,0.10,Thunderstorm,Thunderstorm,190,2012-10-17 19:34:00
2:45 PM,59.0,57.2,94,29.44,3.0,South,12.7,-,0.12,Rain,Light Rain,190,2012-10-17 19:45:00
2:54 PM,59.0,57.0,93,29.43,4.0,SSW,12.7,-,0.12,Rain,Light Rain,200,2012-10-17 19:54:00
3:54 PM,59.0,57.9,96,29.40,2.5,South,10.4,-,0.02,Rain,Light Rain,190,2012-10-17 20:54:00
4:43 PM,60.8,57.2,88,29.38,1.5,South,9.2,-,0.03,Rain,Light Rain,190,2012-10-17 21:43:00
4:54 PM,60.1,59.0,96,29.36,1.5,South,6.9,-,0.03,Rain,Light Rain,190,2012-10-17 21:54:00
4:56 PM,60.8,59.0,94,29.37,1.2,SSW,6.9,-,0.01,Rain,Light Rain,210,2012-10-17 21:56:00
5:08 PM,60.8,59.0,94,29.35,2.0,South,10.4,-,0.02,Rain,Light Rain,180,2012-10-17 22:08:00
5:32 PM,60.8,59.0,94,29.34,4.0,South,12.7,-,0.02,Rain,Light Rain,190,2012-10-17 22:32:00
5:51 PM,60.8,59.0,94,29.33,2.5,South,11.5,-,0.03,Rain,Light Rain,190,2012-10-17 22:51:00
5:54 PM,61.0,59.0,93,29.33,2.5,SSW,11.5,-,0.04,Rain,Light Rain,200,2012-10-17 22:54:00
6:11 PM,60.8,59.0,94,29.33,1.8,WSW,9.2,-,0.05,Rain,Rain,240,2012-10-17 23:11:00
6:23 PM,60.8,59.0,94,29.34,1.0,WSW,11.5,20.7,0.17,Rain,Heavy Rain,250,2012-10-17 23:23:00
6:34 PM,60.8,57.2,88,29.32,2.0,West,12.7,-,0.34,Rain,Heavy Rain,270,2012-10-17 23:34:00
6:39 PM,60.8,57.2,88,29.34,3.0,West,11.5,-,0.36,Rain,Rain,260,2012-10-17 23:39:00
6:54 PM,59.0,57.0,93,29.35,4.0,West,16.1,-,0.41,Rain,Heavy Rain,280,2012-10-17 23:54:00
7:39 PM,57.2,53.6,88,29.38,2.5,WNW,12.7,25.3,0.21,Rain,Heavy Rain,300,2012-10-18 00:39:00
7:46 PM,55.4,53.6,94,29.37,4.0,NW,13.8,23.0,0.25,Rain,Rain,320,2012-10-18 00:46:00
7:54 PM,54.0,51.1,90,29.36,6.0,NW,11.5,27.6,0.27,Rain,Light Rain,320,2012-10-18 00:54:00
8:20 PM,53.6,51.8,94,29.39,10.0,WNW,12.7,25.3,0.00,Rain,Light Rain,300,2012-10-18 01:20:00
8:32 PM,53.6,51.8,94,29.40,10.0,WNW,11.5,25.3,0.00,,Overcast,300,2012-10-18 01:32:00
8:54 PM,53.1,50.0,89,29.41,10.0,WNW,10.4,20.7,0.00,,Overcast,300,2012-10-18 01:54:00
9:54 PM,53.1,50.0,89,29.42,10.0,WNW,5.8,-,N/A,,Overcast,290,2012-10-18 02:54:00
10:54 PM,53.1,48.0,83,29.45,10.0,West,15.0,20.7,N/A,,Partly Cloudy,270,2012-10-18 03:54:00
11:54 PM,51.1,44.1,77,29.45,10.0,West,10.4,-,N/A,,Clear,270,2012-10-18 04:54:00